WHDW 08-02

operational
NORAD ID: 65165 Int'l Des: 2025-174 Owner: ZXW Country: CN
LEOCIRCULARPOLARONEWEB_TYPE

WHDW 08-02について

説明を読み込み中...

リアルタイム位置

3D地球を読み込み中...

次回通過

高度履歴

Altitude vs Time

uPlot chart will show altitude changes over time

軌道要素

1 65165U 25174B 26063.11092199 .00000084 00000-0 16244-3 0 9993
2 65165 86.4890 287.4473 0001236 85.6348 274.4927 13.24421114 26883
Epoch: Mar 4, 2026 • Age: 11 hours

現在のステータス

高度 1176.3 km
速度 7.26 km/s
衛星直下点 -21.13°S, 142.57°E
打ち上げ日 Aug 13, 2025
運用期間 0.5 years
タイプ other

技術仕様

分類 Payload
質量 800.00 kg
乾燥質量 800.00 kg
総質量 800.00 kg
長さ 3.00 m
直径 1.00 m
スパン 10.00 m
形状 Box + 2 Pan
製造者 CAST
バスタイプ Xingwang CL
フェーズステータス In Orbit
所有者/国 ZXW/CN

大規模コンステレーション

Loading constellations...